Wind_Speed
44 43 44 44 45 45 46 45 45 44 44 45 46 47 49 51 52 53 54 54 55 57 58 60 61 61 61 62 62 62 63 62 62 62 63 63 63 64 64 63 63 62 61
44 43 43 43 43 44 44 44 45 46 47 48 48 50 52 53 55 55 55 57 58 59 60 60 61 62 62 61 61 61 61 60 60 60 61 62 62 62 62 61 60 60 59
42 43 43 43 42 43 45 46 46 47 48 50 51 52 53 54 56 57 58 58 59 59 59 59 59 59 59 59 59 58 58 58 58 58 58 58 59 59 58 58 58 58 57
38 39 40 41 42 43 43 44 45 47 49 50 51 52 53 54 55 56 57 57 57 58 58 58 57 57 57 57 56 56 55 55 55 54 54 53 53 53 53 52 51 51 49
35 36 37 38 39 41 41 43 44 46 47 48 50 51 53 54 55 56 57 57 57 57 56 55 55 55 54 53 53 52 51 51 50 49 48 48 47 46 45 43 41 40 40
32 34 35 37 38 39 40 42 43 45 47 49 50 51 52 53 54 54 55 55 54 54 53 52 52 52 51 49 47 46 45 44 43 42 41 39 38 37 35 34 32 31 30
30 31 32 34 35 37 39 41 42 44 46 48 49 51 52 53 53 54 53 52 51 50 49 48 47 45 43 42 40 40 38 37 36 34 32 31 30 28 27 26 25 25 24
29 30 31 33 35 36 38 39 41 43 45 47 49 50 50 51 50 50 49 48 46 45 43 41 40 38 36 35 34 32 31 29 27 26 25 24 23 22 22 21 20 20 20
29 30 31 32 33 35 36 38 40 42 44 45 46 45 45 45 45 43 42 41 39 38 36 34 33 32 30 28 26 25 23 23 21 20 19 18 18 18 18 18 17 18 18
28 29 30 31 32 33 34 36 38 39 41 41 41 40 40 39 37 36 35 33 31 29 28 27 26 25 23 21 20 19 18 18 17 17 16 15 15 15 15 16 16 16 17
27 27 28 29 30 31 32 33 35 35 36 35 34 34 33 32 30 29 28 26 25 24 23 21 20 18 17 16 15 14 14 14 14 14 14 14 14 14 15 15 16 17 17
24 25 26 27 28 29 29 30 29 29 29 29 29 28 28 27 26 25 24 23 21 19 17 16 14 13 12 11 11 11 11 11 11 12 13 13 13 14 15 16 16 17 17
22 23 25 25 26 26 26 26 26 25 25 25 25 25 24 23 22 21 20 18 16 14 12 11 10 10 9 9 9 10 11 11 12 12 13 14 14 15 16 16 16 16 16
22 23 23 24 24 23 23 23 23 23 23 22 22 21 20 19 17 17 15 14 12 11 10 9 9 10 9 10 10 11 11 12 12 13 14 15 15 16 16 16 16 16 15
21 21 22 21 21 21 21 21 21 20 20 19 19 18 17 15 14 13 12 11 11 10 10 10 10 10 11 11 12 12 12 13 14 15 16 16 17 16 16 16 16 16 15
19 19 19 19 18 18 18 17 17 17 17 16 16 15 13 12 11 11 11 11 11 11 11 11 11 12 12 12 12 13 14 14 15 16 16 17 17 17 17 16 16 16 16
17 17 17 16 16 15 15 15 15 14 13 13 12 12 11 10 10 10 11 11 11 11 11 12 12 12 13 13 13 14 14 15 16 16 17 17 17 17 17 17 17 17 16
15 14 14 13 13 13 13 13 12 12 11 10 10 10 10 10 10 10 11 11 11 12 12 13 13 13 13 13 14 14 15 16 16 17 17 17 18 18 18 17 17 16 16
12 12 11 11 11 11 11 10 10 9 9 9 9 10 10 10 10 11 11 11 11 12 13 13 13 13 13 14 14 15 15 16 16 16 17 18 18 18 18 18 17 17 17
10 10 10 10 10 10 9 9 9 9 9 8 9 9 10 10 10 10 11 11 12 12 13 13 13 13 14 14 14 15 15 16 16 17 17 17 18 17 18 18 17 17 17
9 9 9 9 9 9 8 8 8 8 8 8 9 9 10 10 10 10 11 11 12 12 13 13 13 13 14 15 15 15 15 16 16 17 17 17 17 17 17 17 17 17 17
8 8 8 8 8 8 8 7 7 8 8 8 9 9 10 10 10 11 11 12 12 12 13 13 13 14 14 15 15 16 16 16 17 17 17 17 17 17 17 17 18 18 17
7 7 8 8 8 7 7 7 7 8 8 8 9 9 10 10 10 11 11 11 12 12 13 14 14 14 15 15 15 16 16 16 17 17 17 17 17 18 18 17 18 18 18
7 7 8 8 8 7 7 7 7 7 8 8 9 9 10 10 10 11 11 11 12 13 13 14 14 14 15 15 15 16 16 17 17 17 17 17 17 18 18 18 18 17 17
8 8 8 9 8 8 8 8 8 8 8 9 9 10 10 10 11 11 11 11 12 13 13 14 14 15 15 15 16 16 16 16 17 17 17 17 17 18 18 18 18 18 18
9 9 9 9 9 9 9 9 9 9 9 9 10 10 10 11 11 11 11 12 12 13 13 14 14 15 15 15 16 16 16 17 17 17 17 17 17 18 18 18 18 18 19
Wind_Direction
272 275 276 277 279 280 282 284 286 286 286 288 290 290 290 291 291 291 292 291 292 291 291 291 290 290 289 288 288 287 287 286 285 284 284 284 284 284 284 284 284 283 283
273 274 277 278 278 279 281 283 284 285 287 288 289 290 290 290 290 291 291 291 291 291 291 291 290 290 289 289 289 288 288 288 287 286 285 285 285 285 285 284 284 284 283
273 273 276 277 278 280 282 283 284 285 286 287 288 289 289 289 291 291 292 292 292 292 292 292 291 291 290 290 290 290 290 289 289 288 287 287 287 286 285 285 285 285 284
276 275 275 276 278 281 283 283 283 285 287 288 289 290 291 291 292 293 293 293 293 293 292 292 292 292 292 291 291 291 291 291 290 290 289 289 288 288 287 287 287 286 286
276 276 278 281 282 282 283 283 285 286 287 289 290 291 292 292 293 294 294 294 294 294 293 293 293 293 293 292 292 293 293 292 292 291 291 291 291 291 291 290 288 287 288
277 279 279 280 280 282 283 284 285 287 289 290 291 292 292 294 295 295 295 295 295 295 294 294 294 294 294 294 294 294 294 294 294 294 294 293 293 294 294 293 292 292 292
280 280 279 280 281 283 285 286 287 290 291 292 293 293 294 295 295 295 295 295 295 295 295 295 296 296 296 296 297 297 297 297 297 297 297 297 298 297 297 297 297 296 296
280 281 282 283 284 285 287 289 291 292 292 294 295 296 296 297 297 297 297 297 297 297 297 297 298 298 298 299 300 300 301 301 301 302 303 303 303 304 305 305 304 303 302
284 286 288 288 289 291 293 294 295 296 297 298 299 300 300 300 300 300 300 300 300 300 299 299 300 300 301 302 303 305 306 309 310 311 311 310 310 311 312 313 313 311 311
288 289 291 292 294 296 298 299 300 300 301 301 302 303 305 305 306 307 307 307 307 306 305 305 306 306 307 309 311 313 315 317 319 321 321 320 322 323 323 321 321 320 318
289 292 294 296 298 300 302 304 305 306 307 308 309 311 311 312 313 314 315 315 314 313 313 313 313 314 316 318 320 322 324 327 328 329 330 332 334 333 332 330 328 326 324
294 296 298 300 302 304 307 309 311 313 314 315 316 317 317 318 319 320 321 322 323 324 324 325 326 328 330 332 335 338 341 345 347 348 348 347 345 341 339 338 336 333 330
299 301 302 304 306 308 311 313 316 318 319 320 321 322 323 325 326 328 331 333 336 339 342 347 352 356 358 1 2 1 3 4 3 2 360 357 353 350 347 345 343 341 339
303 304 305 306 308 310 312 315 318 320 322 324 326 328 330 332 335 338 343 349 355 1 9 16 20 22 23 19 16 16 15 13 12 9 5 1 358 356 355 355 353 352 351
308 308 308 308 310 313 315 318 321 323 325 327 330 332 335 339 344 350 359 8 16 25 32 32 31 31 29 27 25 23 21 17 14 11 8 6 5 4 3 2 3 3 3
313 312 311 312 315 318 320 323 325 327 329 332 335 340 346 353 1 9 17 24 32 36 36 35 34 32 31 31 30 28 24 20 17 14 13 12 11 10 10 11 12 13 14
316 316 317 318 320 323 326 330 333 335 339 343 348 355 3 11 19 26 31 34 37 38 38 38 35 33 34 34 30 26 24 21 19 18 18 17 17 16 16 16 17 19 21
319 320 321 324 328 332 335 338 341 346 354 1 7 13 19 26 31 35 36 38 39 39 38 37 35 36 36 32 29 26 24 22 21 21 21 21 21 20 20 21 23 25 26
325 326 328 333 337 341 345 351 356 3 11 17 21 26 30 34 37 40 41 40 39 39 38 37 36 36 33 31 28 25 24 23 23 24 24 23 24 24 25 26 28 30 30
335 338 342 346 350 353 358 4 9 15 21 26 31 35 38 40 42 42 42 40 39 38 36 36 35 34 31 29 26 25 25 24 24 24 25 25 26 27 29 30 31 33 33
347 350 354 358 1 5 10 15 19 25 32 39 42 41 40 41 43 43 42 40 39 38 37 36 34 32 29 27 26 27 26 25 25 26 27 28 29 30 31 32 33 34 36
359 2 4 8 12 16 20 26 33 39 44 46 45 43 42 42 42 42 41 40 39 38 37 34 32 30 30 30 30 30 29 29 29 30 31 31 32 33 34 35 36 37 38
9 12 13 16 20 24 30 36 41 45 46 45 44 41 40 40 42 41 40 40 41 39 36 34 32 31 32 32 33 33 32 32 32 32 33 34 35 37 38 39 39 41 41
22 22 23 26 30 31 34 39 42 44 43 43 43 42 42 44 43 42 42 44 43 39 36 34 32 33 34 34 33 33 33 32 33 34 34 35 37 39 40 41 41 42 42
31 33 34 35 38 40 43 47 48 47 46 46 46 46 47 47 45 45 48 46 41 37 35 34 34 34 35 34 33 33 33 34 35 35 36 37 38 40 41 42 44 45 45
38 39 40 42 45 48 50 50 50 49 49 48 48 49 49 48 49 50 47 43 40 37 37 36 35 36 36 35 35 35 35 35 36 36 37 39 41 42 43 44 45 47 48
Height
5784 5783 5781 5780 5778 5777 5776 5775 5772 5770 5768 5766 5764 5762 5759 5756 5753 5750 5747 5743 5739 5736 5731 5727 5723 5719 5715 5710 5706 5702 5697 5693 5690 5686 5681 5677 5673 5669 5666 5662 5659 5656 5652
5774 5773 5772 5770 5769 5767 5765 5764 5761 5759 5757 5755 5752 5750 5747 5744 5740 5737 5733 5729 5725 5721 5716 5711 5707 5702 5697 5693 5688 5683 5679 5675 5672 5668 5663 5659 5655 5651 5648 5644 5640 5637 5634
5763 5763 5762 5761 5759 5757 5755 5753 5751 5749 5746 5744 5741 5738 5734 5731 5727 5723 5719 5714 5710 5705 5700 5695 5690 5685 5681 5676 5671 5667 5662 5658 5654 5650 5646 5641 5637 5633 5631 5627 5623 5620 5617
5754 5753 5752 5750 5749 5747 5745 5742 5740 5738 5735 5732 5729 5725 5721 5717 5713 5709 5704 5699 5694 5689 5684 5679 5674 5670 5665 5660 5655 5651 5646 5642 5638 5634 5630 5625 5621 5617 5614 5612 5608 5604 5601
5744 5743 5742 5740 5739 5737 5734 5732 5729 5727 5724 5720 5717 5713 5708 5704 5699 5694 5689 5684 5679 5674 5668 5664 5659 5654 5650 5645 5641 5636 5632 5627 5623 5619 5615 5611 5607 5604 5600 5597 5594 5591 5588
5736 5734 5733 5731 5729 5727 5724 5721 5719 5716 5712 5709 5705 5700 5695 5690 5685 5680 5675 5669 5664 5659 5654 5649 5644 5640 5636 5631 5627 5623 5619 5615 5611 5607 5603 5599 5595 5592 5589 5586 5584 5582 5580
5727 5725 5723 5722 5720 5717 5714 5711 5708 5705 5701 5697 5692 5688 5683 5677 5672 5667 5661 5656 5650 5645 5640 5636 5631 5627 5623 5619 5615 5611 5608 5604 5601 5597 5593 5590 5587 5584 5581 5578 5576 5574 5572
5719 5717 5715 5713 5710 5707 5705 5702 5698 5694 5690 5685 5680 5675 5670 5664 5659 5653 5648 5643 5638 5633 5628 5624 5620 5617 5613 5609 5606 5603 5599 5596 5593 5590 5587 5584 5581 5578 5576 5573 5571 5569 5566
5711 5709 5706 5704 5701 5699 5695 5692 5688 5684 5679 5674 5669 5664 5659 5653 5647 5641 5636 5631 5626 5622 5618 5615 5611 5608 5605 5601 5599 5596 5593 5590 5587 5585 5582 5579 5577 5574 5572 5569 5567 5565 5562
5702 5701 5698 5696 5693 5690 5686 5683 5678 5674 5669 5664 5659 5654 5649 5643 5637 5632 5627 5622 5618 5614 5610 5607 5604 5601 5599 5596 5594 5591 5589 5586 5584 5581 5579 5576 5574 5571 5569 5566 5564 5561 5559
5695 5693 5691 5688 5685 5682 5678 5674 5670 5665 5660 5655 5651 5646 5641 5635 5630 5625 5621 5616 5612 5608 5605 5602 5599 5596 5594 5592 5590 5588 5585 5583 5581 5579 5576 5574 5572 5569 5567 5564 5561 5558 5556
5689 5686 5684 5681 5678 5675 5671 5667 5663 5658 5654 5649 5644 5640 5635 5630 5625 5621 5616 5612 5608 5604 5601 5598 5596 5594 5592 5590 5588 5586 5584 5582 5580 5577 5575 5573 5570 5568 5565 5562 5559 5556 5552
5683 5680 5678 5675 5672 5668 5665 5661 5657 5653 5649 5644 5640 5635 5631 5626 5622 5617 5613 5609 5606 5602 5600 5597 5595 5593 5591 5589 5588 5586 5584 5582 5579 5577 5575 5572 5570 5567 5563 5560 5556 5553 5550
5677 5675 5672 5669 5666 5662 5659 5655 5652 5648 5644 5640 5636 5632 5628 5624 5620 5616 5612 5609 5605 5603 5600 5598 5596 5594 5592 5591 5589 5587 5585 5582 5580 5578 5575 5572 5569 5566 5562 5559 5555 5552 5548
5672 5669 5666 5663 5660 5657 5654 5651 5648 5644 5641 5637 5634 5630 5627 5623 5619 5616 5612 5609 5606 5604 5602 5600 5598 5596 5594 5592 5590 5588 5586 5583 5581 5578 5575 5572 5568 5565 5562 5558 5555 5551 5548
5667 5664 5661 5658 5656 5653 5650 5647 5644 5641 5638 5635 5632 5628 5625 5622 5619 5616 5613 5611 5608 5606 5604 5602 5600 5598 5596 5594 5592 5590 5587 5585 5582 5579 5576 5572 5569 5565 5562 5558 5555 5551 5548
5663 5660 5657 5655 5652 5650 5647 5644 5642 5639 5636 5633 5630 5628 5625 5622 5620 5617 5615 5613 5611 5609 5607 5604 5602 5600 5598 5596 5594 5592 5589 5586 5583 5580 5577 5573 5570 5566 5563 5559 5556 5552 5549
5660 5657 5655 5652 5650 5647 5645 5643 5640 5638 5635 5633 5631 5628 5626 5623 5621 5619 5617 5615 5613 5611 5609 5607 5605 5603 5601 5598 5596 5593 5591 5588 5585 5581 5578 5575 5571 5568 5564 5560 5557 5554 5551
5657 5655 5653 5650 5648 5646 5644 5641 5639 5637 5635 5633 5631 5629 5627 5625 5623 5622 5620 5618 5616 5614 5612 5609 5607 5605 5603 5601 5598 5595 5593 5590 5586 5583 5580 5576 5573 5569 5566 5562 5559 5556 5553
5656 5653 5651 5649 5647 5645 5643 5641 5640 5638 5636 5634 5633 5631 5629 5627 5626 5624 5622 5620 5618 5616 5614 5612 5610 5608 5605 5603 5600 5597 5595 5592 5588 5585 5582 5578 5575 5571 5568 5565 5561 5558 5555
5655 5653 5651 5649 5647 5645 5643 5642 5640 5639 5637 5636 5634 5633 5631 5629 5628 5626 5624 5622 5621 5618 5616 5614 5612 5610 5608 5605 5602 5599 5597 5594 5590 5587 5584 5581 5577 5574 5571 5567 5564 5561 5558
5654 5653 5651 5649 5648 5646 5644 5643 5642 5640 5639 5637 5636 5635 5633 5632 5630 5628 5627 5625 5623 5621 5619 5617 5614 5612 5610 5607 5604 5602 5599 5596 5593 5589 5586 5583 5580 5577 5573 5570 5567 5564 5561
5655 5653 5652 5650 5649 5647 5646 5645 5643 5642 5641 5639 5638 5637 5635 5634 5632 5630 5629 5627 5625 5623 5621 5619 5617 5614 5612 5609 5607 5604 5601 5598 5595 5592 5589 5586 5583 5580 5576 5573 5570 5567 5564
5655 5654 5653 5651 5650 5649 5647 5646 5645 5644 5643 5641 5640 5638 5637 5636 5634 5633 5631 5629 5628 5626 5624 5621 5619 5617 5614 5612 5609 5606 5604 5601 5598 5595 5592 5589 5586 5583 5580 5577 5574 5571 5568
5657 5655 5654 5653 5651 5650 5649 5648 5647 5646 5644 5643 5642 5640 5639 5638 5636 5635 5633 5632 5630 5628 5626 5624 5622 5619 5617 5614 5612 5609 5606 5603 5601 5598 5595 5592 5589 5586 5583 5580 5577 5575 5572
5659 5657 5656 5654 5653 5652 5651 5650 5649 5648 5647 5645 5644 5643 5641 5640 5639 5637 5636 5634 5633 5631 5629 5626 5624 5622 5619 5617 5614 5612 5609 5606 5603 5601 5598 5595 5592 5590 5587 5584 5581 5579 5576